Ft. Stewart, GA

1:32 PM EDT on August 19, 2017 (GMT -0400)
Wright Army Air Field

Weather History for KLHW - September, 2013

Change the Weather History Date:

Tuesday, September 10, 2013

  Actual Average Record
Temperature  
Mean Temperature 78 °F -  
Max Temperature 87 °F 88 °F 95 °F (1977)
Min Temperature 70 °F 69 °F 55 °F (1998)
Cooling Degree Days 14    
Growing Degree Days 28 (Base 50)    
Moisture  
Dew Point 74 °F    
Average Humidity 85    
Maximum Humidity 100    
Minimum Humidity 64    
Precipitation  
Precipitation 0.00 in - - ()
Sea Level Pressure  
Sea Level Pressure 30.15 in    
Wind  
Wind Speed 5 mph (NE)    
Max Wind Speed 15 mph    
Max Gust Speed -    
Visibility 10 miles    
Events      
Averages and records for this station are not official NWS values.
T = Trace of Precipitation, MM = Missing Value Source: NWS Daily Summary

Daily Weather History Graph

Daily Weather History Graph

Search for Another Location

Airport or City:

Trip Planner

Search our weather history database for the weather conditions in past years. The results will help you decide how hot, cold, wet, or windy it might be!

Date:

Astronomy

Sep. 10, 2013 Rise Set
Actual Time 7:07 AM EDT 7:38 PM EDT
Civil Twilight 6:42 AM EDT 8:02 PM EDT
Nautical Twilight 6:13 AM EDT 8:31 PM EDT
Astronomical Twilight 5:44 AM EDT 9:00 PM EDT
Moon 12:10 PM EDT (9/10) 11:02 PM EDT (9/10)
Length of Visible Light 13h 20m
Length of Day
12h 31m
Waxing Crescent, 28% of the Moon is Illuminated
Sep 10
Waxing Crescent
Sep 12
First Quarter
Sep 19
Full
Sep 26
Last Quarter
Oct 4
New

Hourly Weather History & Observations

Time (EDT) Temp. Heat Index Dew Point Humidity Pressure Visibility Wind Dir Wind Speed Gust Speed Precip Events Conditions
12:58 AM 72.7 °F - 72.0 °F 98% 30.11 in 10.0 mi Calm Calm - N/A   Clear
1:58 AM 71.8 °F - 71.8 °F 100% 30.11 in 10.0 mi Calm Calm - N/A   Clear
2:58 AM 70.3 °F - 70.3 °F 100% 30.11 in 10.0 mi Calm Calm - N/A   Clear
3:58 AM 70.2 °F - 70.2 °F 100% 30.10 in 10.0 mi North 2.3 mph - N/A   Clear
4:58 AM 70.7 °F - 70.7 °F 100% 30.11 in 10.0 mi Calm Calm - N/A   Partly Cloudy
5:58 AM 71.4 °F - 71.4 °F 100% 30.12 in 10.0 mi North 2.3 mph - N/A   Scattered Clouds
6:58 AM 71.6 °F - 71.6 °F 100% 30.14 in 10.0 mi NNE 5.8 mph - N/A   Clear
7:58 AM 72.0 °F - 72.0 °F 100% 30.15 in 10.0 mi NNE 4.6 mph - N/A   Clear
8:58 AM 74.1 °F - 74.1 °F 100% 30.18 in 10.0 mi NNE 4.6 mph - N/A   Overcast
9:58 AM 81.1 °F 87.8 °F 76.3 °F 85% 30.19 in 10.0 mi NE 9.2 mph - N/A   Partly Cloudy
10:55 AM 82.4 °F 89.5 °F 75.2 °F 79% 30.19 in 10.0 mi NE 10.4 mph - N/A   Partly Cloudy
11:10 AM 82.4 °F 89.5 °F 75.2 °F 79% 30.19 in 10.0 mi NE 9.2 mph - N/A   Mostly Cloudy
11:16 AM 84.2 °F 92.3 °F 75.2 °F 74% 30.19 in 10.0 mi NNE 8.1 mph - N/A   Mostly Cloudy
11:19 AM 84.2 °F 92.3 °F 75.2 °F 74% 30.19 in 10.0 mi NNE 11.5 mph - N/A   Mostly Cloudy
11:20 AM 84.2 °F 92.3 °F 75.2 °F 74% 30.19 in 10.0 mi NNE 10.4 mph - N/A   Mostly Cloudy
11:55 AM 86.0 °F 95.1 °F 75.2 °F 70% 30.19 in 10.0 mi NE 8.1 mph - N/A   Mostly Cloudy
12:55 PM 82.4 °F 89.5 °F 75.2 °F 79% 30.18 in 10.0 mi Variable 4.6 mph - N/A   Scattered Clouds
1:58 PM 85.8 °F 96.4 °F 76.8 °F 74% 30.18 in 10.0 mi SE 9.2 mph - N/A   Scattered Clouds
2:58 PM 86.0 °F 95.5 °F 75.6 °F 71% 30.16 in 10.0 mi ESE 8.1 mph - N/A   Scattered Clouds
3:58 PM 87.4 °F 96.2 °F 74.3 °F 65% 30.14 in 10.0 mi East 15.0 mph - N/A   Clear
4:58 PM 86.7 °F 94.1 °F 73.2 °F 64% 30.13 in 10.0 mi East 12.7 mph - N/A   Clear
5:58 PM 85.3 °F 92.6 °F 73.6 °F 68% 30.14 in 10.0 mi East 10.4 mph - N/A   Clear
6:58 PM 83.5 °F 90.3 °F 73.9 °F 73% 30.14 in 10.0 mi East 11.5 mph - N/A   Clear
7:58 PM 79.7 °F - 74.1 °F 83% 30.14 in 10.0 mi East 4.6 mph - N/A   Clear
8:58 PM 77.7 °F - 74.1 °F 89% 30.16 in 10.0 mi NNE 3.5 mph - N/A   Clear
9:58 PM 76.1 °F - 74.3 °F 94% 30.17 in 10.0 mi NE 4.6 mph - N/A   Clear
10:58 PM 75.2 °F - 74.3 °F 97% 30.17 in 10.0 mi NNE 4.6 mph - N/A   Clear
11:58 PM 74.5 °F - 74.1 °F 99% 30.17 in 10.0 mi NNE 3.5 mph - N/A   Clear